GEOEYE 1 (33331 NORAD) Tracking and Keplerian Element Data

This shows tracking and keplerian element data for the satellite.

Feedback or suggestion? Click here.




ElementValue
Catalog33331
NameGEOEYE 1
Epoch Orbit92394
Epoch Day354.17056432
Epoch Year2025
RAAN65.3576
Inclination98.1244
Eccentricity0.0002811
Argument of Perigee252.4671
Mean Anonmoly107.6225
Mean Motion14.64709473
Decay Rate3.93E-06
L11 33331U 08042A 25354.17056432 .00000393 00000+0 82665-4 0 9999
L22 33331 98.1244 65.3576 0002811 252.4671 107.6225 14.64709473923949



Live tracking and technical data element details for GEOEYE 1 (NORAD 33331). GEOEYE 1 can be tracked NOW for your location showing map with azimuth and elevation plus other details from your city location.







IsCatalogInMostPopularTable: catalog: 33331, numindb: 366
Update: records affected: 1



GetName: 33331 GEOEYE 1

Hit Count: updated at: Wed, 15 Apr 2026 01:29:29 GMT